Location: Silverdale
(47.6506°N, 122.6941°W)
Time: 05:04:01
(UTC+00:00)

Courier 1B Rocket - Pass Details

Date: 04 October 2022
Orbit: 920 x 1202 km, 28.3° (Epoch: 28 November)

Event Time Altitude Azimuth Distance (km) Brightness Sun altitude
Rises 04:15:49 0° 230° (SW) 3,697 8.4 -25.6°
Reaches altitude 10° 04:20:18 10° 203° (SSW) 2,689 7.3 -26.3°
Enters shadow 04:21:38 12° 191° (S) 2,534 7.0 -26.5°
